GORIZONT 4 [-]

Last updated on Sept. 19, 2020, 5:46 a.m. UTC

1 11841U 80049A   20262.54057962 -.00000230  00000-0  00000+0 0  9991
2 11841  11.9513 315.8643 0002239 343.0032  27.6190  0.98630937212867
UTC
Height (km)
Latitude
Longitude
Inclination
Orbital Period
UTC large
Height (km)
Speed (km/s)
/
Latitude / Longitude
Inclination (degrees)
Orbital Period (minutes)
Azimuth
Elevation
Range (km)
Doppler Factor
iOS Compass Heading
iOS Angle

Next 30 passes for location: Hong Kong

Rise time Rise Azimuth (degrees) Set time Set Azimuth (degrees) Duration Max altitude (degrees)

No matching passes for this satellites